Hourly Weather Bolshinka

Today, 30 July, Friday

Time Temperature Precipitation Wind Pressure Humidity
00:00 +26°C° 0 mm 3 mps 753 mmHg 46%
01:00 +26°C° 0 mm 3 mps 753 mmHg 50%
02:00 +25°C° 0 mm 2 mps 753 mmHg 54%
03:00 +24°C° 0 mm 2 mps 753 mmHg 57%
04:00 +25°C° 0 mm 2 mps 753 mmHg 58%
05:00 +25°C° 0 mm 2 mps 753 mmHg 58%
06:00 +25°C° 0 mm 2 mps 753 mmHg 59%
07:00 +27°C° 0 mm 3 mps 753 mmHg 54%
08:00 +29°C° 0 mm 4 mps 753 mmHg 48%
09:00 +32°C° 0 mm 5 mps 753 mmHg 43%
10:00 +33°C° 0 mm 6 mps 753 mmHg 41%
11:00 +34°C° 0 mm 6 mps 753 mmHg 38%
12:00 +35°C° 0 mm 6 mps 753 mmHg 36%
13:00 +35°C° 0 mm 6 mps 753 mmHg 37%
14:00 +34°C° 0 mm 6 mps 752 mmHg 38%
15:00 +34°C° 0 mm 5 mps 752 mmHg 39%
16:00 +33°C° 0.3 mm 5 mps 752 mmHg 45%
17:00 +30°C° 0.3 mm 5 mps 752 mmHg 51%
18:00 +28°C° 0.3 mm 5 mps 752 mmHg 58%
19:00 +27°C° 0.4 mm 4 mps 752 mmHg 60%
20:00 +26°C° 0.4 mm 2 mps 752 mmHg 63%
21:00 +26°C° 0.4 mm 1 mps 752 mmHg 65%
22:00 +25°C° 0.1 mm 1 mps 752 mmHg 66%
23:00 +25°C° 0.1 mm 1 mps 752 mmHg 66%

Tomorrow, 31 July, Saturday

Time Temperature Precipitation Wind Pressure Humidity
00:00 +25°C° 0.1 mm 1 mps 752 mmHg 67%
01:00 +25°C° 0 mm 1 mps 752 mmHg 67%
02:00 +24°C° 0 mm 1 mps 752 mmHg 67%
03:00 +24°C° 0 mm 1 mps 752 mmHg 67%
04:00 +24°C° 0 mm 1 mps 752 mmHg 66%
05:00 +25°C° 0 mm 1 mps 752 mmHg 65%
06:00 +25°C° 0 mm 1 mps 753 mmHg 64%
07:00 +27°C° 0 mm 1 mps 753 mmHg 57%
08:00 +27°C° 0 mm 0 mps 753 mmHg 51%
09:00 +29°C° 0 mm 0 mps 753 mmHg 45%
10:00 +32°C° 0 mm 1 mps 753 mmHg 40%
11:00 +34°C° 0 mm 1 mps 753 mmHg 34%
12:00 +36°C° 0 mm 2 mps 753 mmHg 29%
13:00 +37°C° 0 mm 2 mps 752 mmHg 28%
14:00 +37°C° 0 mm 2 mps 752 mmHg 26%
15:00 +38°C° 0 mm 2 mps 752 mmHg 25%
16:00 +37°C° 0 mm 2 mps 752 mmHg 27%
17:00 +36°C° 0 mm 3 mps 752 mmHg 30%
18:00 +35°C° 0 mm 3 mps 752 mmHg 32%
19:00 +33°C° 0 mm 3 mps 753 mmHg 39%
20:00 +30°C° 0 mm 3 mps 753 mmHg 45%
21:00 +28°C° 0 mm 3 mps 753 mmHg 51%
22:00 +28°C° 0 mm 3 mps 754 mmHg 54%
23:00 +27°C° 0 mm 3 mps 754 mmHg 57%

Day after tomorrow, 1 August, Sunday

Time Temperature Precipitation Wind Pressure Humidity
00:00 +27°C° 0 mm 3 mps 754 mmHg 60%
01:00 +26°C° 0 mm 3 mps 754 mmHg 61%
02:00 +26°C° 0 mm 3 mps 754 mmHg 62%
03:00 +25°C° 0 mm 2 mps 754 mmHg 63%
04:00 +25°C° 0 mm 2 mps 754 mmHg 61%
05:00 +25°C° 0 mm 2 mps 754 mmHg 59%
06:00 +25°C° 0 mm 2 mps 754 mmHg 58%
07:00 +28°C° 0 mm 2 mps 755 mmHg 48%
08:00 +31°C° 0 mm 3 mps 755 mmHg 38%
09:00 +34°C° 0 mm 3 mps 755 mmHg 29%
10:00 +36°C° 0 mm 3 mps 755 mmHg 24%
11:00 +37°C° 0 mm 3 mps 754 mmHg 20%
12:00 +39°C° 0 mm 3 mps 754 mmHg 15%
13:00 +39°C° 0 mm 3 mps 754 mmHg 15%
14:00 +40°C° 0 mm 3 mps 754 mmHg 14%
15:00 +40°C° 0 mm 3 mps 753 mmHg 14%
16:00 +40°C° 0 mm 2 mps 753 mmHg 14%
17:00 +39°C° 0 mm 2 mps 753 mmHg 15%
18:00 +39°C° 0 mm 2 mps 753 mmHg 16%
19:00 +36°C° 0 mm 2 mps 753 mmHg 18%
20:00 +33°C° 0 mm 1 mps 753 mmHg 21%
21:00 +29°C° 0 mm 0 mps 754 mmHg 23%
22:00 +28°C° 0 mm 0 mps 753 mmHg 24%
23:00 +27°C° 0 mm 0 mps 753 mmHg 25%

2 August, Monday

Time Temperature Precipitation Wind Pressure Humidity
00:00 +27°C° 0 mm 0 mps 753 mmHg 25%
01:00 +28°C° 0 mm 1 mps 753 mmHg 26%
02:00 +27°C° 0 mm 1 mps 753 mmHg 27%
03:00 +26°C° 0 mm 1 mps 753 mmHg 28%
04:00 +27°C° 0 mm 1 mps 754 mmHg 29%
05:00 +27°C° 0 mm 1 mps 754 mmHg 29%
06:00 +27°C° 0 mm 1 mps 754 mmHg 30%
07:00 +30°C° 0 mm 2 mps 754 mmHg 27%
08:00 +32°C° 0 mm 2 mps 754 mmHg 24%
09:00 +36°C° 0 mm 2 mps 754 mmHg 21%
10:00 +37°C° 0 mm 2 mps 753 mmHg 21%
11:00 +38°C° 0 mm 3 mps 753 mmHg 20%
12:00 +39°C° 0 mm 3 mps 753 mmHg 20%
13:00 +40°C° 0 mm 3 mps 753 mmHg 19%
14:00 +40°C° 0 mm 3 mps 753 mmHg 19%
15:00 +40°C° 0 mm 3 mps 752 mmHg 19%
16:00 +39°C° 0 mm 3 mps 752 mmHg 20%
17:00 +39°C° 0 mm 2 mps 752 mmHg 21%
18:00 +38°C° 0 mm 2 mps 752 mmHg 22%
19:00 +37°C° 0 mm 2 mps 752 mmHg 24%
20:00 +35°C° 0 mm 2 mps 752 mmHg 25%
21:00 +34°C° 0 mm 2 mps 752 mmHg 27%
22:00 +32°C° 0 mm 2 mps 752 mmHg 27%
23:00 +32°C° 0 mm 2 mps 752 mmHg 28%

3 August, Tuesday

Time Temperature Precipitation Wind Pressure Humidity
00:00 +31°C° 0 mm 2 mps 752 mmHg 28%
01:00 +30°C° 0 mm 2 mps 752 mmHg 29%
02:00 +29°C° 0 mm 2 mps 752 mmHg 30%
03:00 +29°C° 0 mm 2 mps 752 mmHg 31%
04:00 +28°C° 0 mm 2 mps 752 mmHg 32%
05:00 +28°C° 0 mm 2 mps 752 mmHg 34%
06:00 +28°C° 0 mm 2 mps 752 mmHg 36%
07:00 +30°C° 0 mm 2 mps 752 mmHg 32%
08:00 +32°C° 0 mm 2 mps 752 mmHg 29%
09:00 +36°C° 0 mm 2 mps 752 mmHg 26%
10:00 +37°C° 0 mm 3 mps 752 mmHg 24%
11:00 +38°C° 0 mm 3 mps 752 mmHg 23%
12:00 +40°C° 0 mm 3 mps 752 mmHg 21%
13:00 +40°C° 0 mm 4 mps 752 mmHg 24%
14:00 +39°C° 0 mm 5 mps 752 mmHg 27%
15:00 +39°C° 0 mm 6 mps 752 mmHg 30%
16:00 +38°C° 0 mm 6 mps 752 mmHg 32%
17:00 +36°C° 0 mm 5 mps 752 mmHg 34%
18:00 +35°C° 0 mm 5 mps 752 mmHg 35%
19:00 +33°C° 0.2 mm 4 mps 753 mmHg 43%
20:00 +30°C° 0.2 mm 4 mps 753 mmHg 51%
21:00 +27°C° 0.2 mm 3 mps 753 mmHg 59%
22:00 +26°C° 0.2 mm 3 mps 754 mmHg 65%
23:00 +25°C° 0.2 mm 3 mps 754 mmHg 71%

4 August, Wednesday

Time Temperature Precipitation Wind Pressure Humidity
00:00 +24°C° 0.2 mm 3 mps 754 mmHg 77%
01:00 +24°C° 0.2 mm 3 mps 754 mmHg 79%
02:00 +22°C° 0.2 mm 3 mps 755 mmHg 81%
03:00 +23°C° 0.2 mm 2 mps 755 mmHg 83%
04:00 +23°C° 0 mm 2 mps 755 mmHg 81%
05:00 +23°C° 0 mm 2 mps 755 mmHg 79%
06:00 +23°C° 0 mm 2 mps 755 mmHg 77%
07:00 +25°C° 0 mm 3 mps 755 mmHg 69%
08:00 +26°C° 0 mm 3 mps 755 mmHg 61%
09:00 +28°C° 0 mm 4 mps 756 mmHg 53%
10:00 +29°C° 0 mm 4 mps 756 mmHg 47%
11:00 +32°C° 0 mm 4 mps 756 mmHg 41%
12:00 +33°C° 0 mm 4 mps 756 mmHg 35%
13:00 +33°C° 0 mm 4 mps 756 mmHg 32%
14:00 +34°C° 0 mm 4 mps 755 mmHg 30%
15:00 +35°C° 0 mm 4 mps 755 mmHg 27%
16:00 +34°C° 0 mm 4 mps 755 mmHg 27%
17:00 +34°C° 0 mm 4 mps 755 mmHg 27%
18:00 +34°C° 0 mm 4 mps 755 mmHg 27%
19:00 +32°C° 0 mm 4 mps 755 mmHg 31%
20:00 +29°C° 0 mm 4 mps 755 mmHg 34%
21:00 +27°C° 0 mm 3 mps 756 mmHg 38%
22:00 +26°C° 0 mm 3 mps 756 mmHg 40%
23:00 +26°C° 0 mm 3 mps 756 mmHg 42%
Show more

We Need Your Consent

Meteoprog and our Service Providers may store and access personal data such as cookies, device identifiers or other similar technologies on your device and process such data to personalise content and ads, as well as provide social media features and to analyse the traffic.

  • Store and/or access information on your device

    Cookies, device identifiers or other information can be stored or accessed on your device for the purposes indicated above.

  • Personalised ads and content, ad and content measurement, audience insights, and products development

    Ads and content can be personalised based on a profile. More data can be added to better personalise ads and content. Ad and content performance can be measured. Insights about the audience who saw the ads and content can be derived. Such data can be used to develop or improve user’s experience, systems and software.

By clicking ‘I Agree’ you will allow the use of indicated cookies, device identifiers, web beacons or other similar technologies. Your settings can be changed in the browser on your device.

For certain purposes, legitimate interests may be relied on, rather than consent. You can read more about this in our Privacy and Cookie Policy.